Hourly Data Report for October 03, 2017

All times are specified in Local Standard Time (LST). Add 1 hour to adjust for Daylight Saving Time where and when it is observed.

THE PAS A
MANITOBA

53°58'17.000" N
101°05'28.000" W
270.60 m
5052881
71867
YQD

Download Data

Hourly Data (October 2017)
Hourly Data Report for October 3, 2017
Temp Definition
°C
Dew Point Temp Definition
°C
Rel Hum Definition
%
Wind Dir Definition
10's deg

Wind Spd Definition
km/h
Visibility Definition
km
Stn Press Definition
kPa
Hmdx Definition


Wind Chill Definition


Weather Definition


TIME
00:00 Legend Double Dagger 5.1 3.4 89 1 34 8.1 98.07     Rain,Fog
01:00 Legend Double Dagger 4.5 2.9 89 1 27 8.1 98.17     Rain,Fog
02:00 Legend Double Dagger 4.5 2.9 90 1 27 8.1 98.25     Rain,Fog
03:00 Legend Double Dagger 4.1 2.3 88 2 28 6.4 98.35     Drizzle,Fog
04:00 Legend Double Dagger 3.8 2.1 89 3 22 6.4 98.44     Drizzle,Fog
05:00 Legend Double Dagger 3.5 1.7 88 1 27 6.4 98.52     Drizzle,Fog
06:00 Legend Double Dagger 3.3 0.3 80 5 23 11.3 98.71     Cloudy
07:00 Legend Double Dagger 3.2 0.3 82 4 16 9.7 98.80     Drizzle,Fog
08:00 Legend Double Dagger 3.3 1.0 85 2 14 19.3 98.82     Drizzle
09:00 Legend Double Dagger 3.0 0.0 80 3 20 24.1 98.87     Cloudy
10:00 Legend Double Dagger 3.5 0.0 78 5 17 24.1 98.95     LegendNANA
11:00 Legend Double Dagger 4.9 -0.9 66 4 12 24.1 98.93     LegendNANA
12:00 Legend Double Dagger 6.1 -1.4 59 1 14 24.1 98.92     Mainly Clear
13:00 Legend Double Dagger 7.0 0.0 61 36 17 24.1 98.91     LegendNANA
14:00 Legend Double Dagger 7.8 -2.2 49 5 12 24.1 98.92     LegendNANA
15:00 Legend Double Dagger 8.5 -1.7 49 36 8 24.1 98.92     Clear
16:00 Legend Double Dagger 8.6 -1.9 47 36 8 24.1 98.92     LegendNANA
17:00 Legend Double Dagger 8.4 -2.8 45 35 6 24.1 98.92     LegendNANA
18:00 Legend Double Dagger 5.3 -1.3 62 12 5 24.1 98.87     Mainly Clear
19:00 Legend Double Dagger 3.8 0.6 80 36 1 24.1 98.85     LegendNANA
20:00 Legend Double Dagger 3.4 0.4 81 36 2 24.1 98.84     LegendNANA
21:00 Legend Double Dagger 4.5 -1.2 67 21 10 24.1 98.75     Mostly Cloudy
22:00 Legend Double Dagger 4.4 -0.7 69 18 11 24.1 98.66     LegendNANA
23:00 Legend Double Dagger 3.7 1.0 82 25 9 24.1 98.70     LegendNANA

Notes on Data Quality.

Legend

  • E = Estimated
  • M = Missing
  • NA = Not Available
  • ‡ = Partner data that is not subject to review by the National Climate Archives
Date modified: